Regional Weather Roundup
Issued by NWS

Home | Current Version | Previous Version | Text Only | Print | Product List | Glossary On
Versions: 1 2 3 4 5 6 7 8 9 10 11 12 13 14 15 16 17 18 19 20 21 22 23 24 25 26 27 28 29 30 31 32 33 34 35 36 37 38 39 40 41 42 43 44 45 46 47 48 49 50
458
ASUS44 KJAN 190310
RWRMS

MISSISSIPPI HOURLY WEATHER ROUNDUP
NATIONAL WEATHER SERVICE JACKSON MS
1000 PM CDT FRI APR 18 2014

NOTE: "FAIR: INDICATES FEW OR NO CLOUDS BELOW 12,000 FEET WITH NO
SIGNIFICANT WEATHER AND/OR OBSTRUCTIONS TO VISIBILITY.

MSZ001>002-007>008-010>013-018>021-025>028-034>036-190400-
NORTHWEST MISSISSIPPI

CITY           SKY/WX    TMP DP  RH WIND       PRES   REMARKS
CLARKSDALE       N/A     63  54  72 CALM      30.19R
CLEVELAND      FAIR      63  55  76 E8        30.17R
GREENWOOD      CLEAR     59  53  80 NE3       30.17R
GREENVILLE     MOCLDY    65  53  65 E7        30.16R
GRENADA        CLOUDY    59  54  82 E5        30.18S
OLIVE BRANCH   PTCLDY    61  54  77 CALM      30.19R
OXFORD         FAIR      59  50  72 CALM      30.20S
TUNICA         CLEAR     61  54  77 E5        30.18S
$$

MSZ003>006-009-014>017-022>024-029>033-037>039-190400-
NORTHEAST MISSISSIPPI

CITY           SKY/WX    TMP DP  RH WIND       PRES   REMARKS
BELMONT        FAIR      53  52  94 CALM      30.17F
COLUMBUS AFB   MOCLDY    55  54  96 CALM      30.17S
CORINTH        FAIR      55  52  88 CALM      30.18S
GOLDN TRIANGLE MOCLDY    55  48  76 CALM      30.19S
STARKVILLE     FAIR      54  52  94 CALM      30.17S
TUPELO         CLOUDY    56  53  90 CALM      30.17F
$$

MSZ040-058-190400-
CENTRAL MISSISSIPPI

CITY           SKY/WX    TMP DP  RH WIND       PRES   REMARKS
JACKSON INTL   PTCLDY    60  54  80 N3        30.16R
JACKSON HAWKNS CLEAR     62  53  72 NE3       30.16R
MERIDIAN KEY   MOCLDY    55  52  89 N6        30.15S
MERIDIAN NAS   CLOUDY    56  53  90 N3        30.16R
RAYMOND        FAIR      57  54  88 CALM      30.16R
VICKSBURG      CLEAR     63  55  75 NE8       30.16R
$$

MSZ059>079-190400-
SOUTH MISSISSIPPI

CITY           SKY/WX    TMP DP  RH WIND       PRES   REMARKS
BROOKHAVEN     FAIR      55  55 100 CALM      30.16R
COLUMBIA       FAIR      57  55  94 MISG      30.13S
HATTIESBURG    MOCLDY    58  55  90 N5        30.15R
MCCOMB         CLEAR     61  54  77 VRB3      30.13R
NATCHEZ        CLEAR     57  55  94 CALM      30.15R
PINE BELT      MOCLDY    55  52  88 NE6       30.15R
$$

MSZ080>082-190400-
COASTAL MISSISSIPPI

CITY           SKY/WX    TMP DP  RH WIND       PRES   REMARKS
BILOXI         MOCLDY    60  54  80 N9        30.10R
PASCAGOULA     MOCLDY    59  54  83 N9        30.10R
GULFPORT       PTCLDY    62  52  69 N8        30.10R
$$



USA.gov is the U.S. government's official web portal to all federal, state and local government web resources and services.